Adelanto, California, United States (92301)
Lat: 34.58N, Lon: 117.41W
Wx Zone: CAZ060
Local Info
Past Weather Observations for Wednesday, January 21, 2015

NOTE: This archive is for the closest National Weather Service station to Adelanto. Information may differ from the station used for current weather conditions.

Click here for Long-term Archive

Time Weather Temperature Dewpoint Humidity Pressure Winds Precip Visibility
23:55
Fair
36°F / 2°C 21°F / -6°C 56% 30.24 in
(1024 mb)
Calm - 10SM
23:35
Fair
39°F / 4°C 21°F / -6°C 48% 30.24 in
(1024 mb)
SSE 3.5 mph
(SSE 6 kph)
- 10SM
23:15
Fair
37°F / 3°C 23°F / -5°C 56% 30.24 in
(1024 mb)
SSE 3.5 mph
(SSE 6 kph)
- 10SM
22:55
Fair
36°F / 2°C 23°F / -5°C 60% 30.24 in
(1024 mb)
SW 3.5 mph
(SW 6 kph)
- 10SM
22:35
Clear
37°F / 3°C 23°F / -5°C 56% 30.21 in
(1023 mb)
SSW 5.8 mph
(SSW 9 kph)
- 10SM
22:15
Clear
39°F / 4°C 23°F / -5°C 52% 30.21 in
(1023 mb)
Calm - 10SM
21:55
Clear
39°F / 4°C 23°F / -5°C 52% 30.21 in
(1023 mb)
S 6.9 mph
(S 11 kph)
- 10SM
21:35
Fair
39°F / 4°C 21°F / -6°C 48% 30.21 in
(1023 mb)
SSW 3.5 mph
(SSW 6 kph)
- 10SM
21:15
Fair
41°F / 5°C 21°F / -6°C 45% 30.21 in
(1023 mb)
SW 6.9 mph
(SW 11 kph)
- 10SM
20:55
Fair
41°F / 5°C 21°F / -6°C 45% 30.18 in
(1022 mb)
SSE 5.8 mph
(SSE 9 kph)
- 10SM
20:35
Clear
41°F / 5°C 21°F / -6°C 45% 30.18 in
(1022 mb)
SSW 4.6 mph
(SSW 7 kph)
- 10SM
20:15
Clear
48°F / 9°C 18°F / -8°C 29% 30.18 in
(1022 mb)
Calm - 10SM
19:55
Clear
45°F / 7°C 19°F / -7°C 37% 30.18 in
(1022 mb)
Calm - 10SM
19:35
Clear
45°F / 7°C 19°F / -7°C 37% 30.18 in
(1022 mb)
Calm - 10SM
19:15
Clear
50°F / 10°C 18°F / -8°C 28% 30.18 in
(1022 mb)
NE 4.6 mph
(NE 7 kph)
- 10SM
18:55
Clear
48°F / 9°C 18°F / -8°C 29% 30.15 in
(1021 mb)
ENE 6.9 mph
(ENE 11 kph)
- 10SM
18:35
Clear
48°F / 9°C 19°F / -7°C 32% 30.15 in
(1021 mb)
ENE 8.1 mph
(ENE 13 kph)
- 10SM
18:15
Clear
52°F / 11°C 18°F / -8°C 26% 30.15 in
(1021 mb)
NE 5.8 mph
(NE 9 kph)
- 10SM
17:55
Clear
55°F / 13°C 16°F / -9°C 21% 30.15 in
(1021 mb)
NNE 4.6 mph
(NNE 7 kph)
- 10SM
17:35
Clear
55°F / 13°C 16°F / -9°C 21% 30.12 in
(1020 mb)
NE 3.5 mph
(NE 6 kph)
- 10SM
17:15
Clear
57°F / 14°C 18°F / -8°C 21% 30.15 in
(1021 mb)
Calm - 10SM
16:55
Clear
57°F / 14°C 19°F / -7°C 23% 30.12 in
(1020 mb)
NE 3.5 mph
(NE 6 kph)
- 10SM
16:35
Clear
59°F / 15°C 18°F / -8°C 20% 30.12 in
(1020 mb)
NE 5.8 mph
(NE 9 kph)
- 10SM
16:15
Clear
59°F / 15°C 18°F / -8°C 20% 30.12 in
(1020 mb)
NE 5.8 mph
(NE 9 kph)
- 10SM
15:55
Clear
61°F / 16°C 18°F / -8°C 19% 30.12 in
(1020 mb)
NE 11.5 mph
(NE 19 kph)
- 10SM
15:35
Clear
61°F / 16°C 18°F / -8°C 19% 30.12 in
(1020 mb)
N 10.4 mph
(N 17 kph)
- 10SM
15:15
Clear
61°F / 16°C 19°F / -7°C 20% 30.12 in
(1020 mb)
NNE 10.4 mph
(NNE 17 kph)
- 10SM
14:55
Clear
61°F / 16°C 21°F / -6°C 22% 30.12 in
(1020 mb)
NE 11.5 mph
(NE 19 kph)
- 10SM
14:35
Fair
61°F / 16°C 23°F / -5°C 23% 30.12 in
(1020 mb)
NE 5.8 mph
(NE 9 kph)
- 10SM
14:15
Fair
61°F / 16°C 21°F / -6°C 22% 30.12 in
(1020 mb)
NE 10.4 mph
(NE 17 kph)
- 10SM
13:55
Fair
61°F / 16°C 23°F / -5°C 23% 30.12 in
(1020 mb)
NNE 10.4 mph
(NNE 17 kph)
- 10SM
13:35
Fair
61°F / 16°C 25°F / -4°C 25% 30.12 in
(1020 mb)
NNE 10.4 mph
(NNE 17 kph)
- 10SM
13:15
Fair
59°F / 15°C 27°F / -3°C 29% 30.12 in
(1020 mb)
NE 9.2 mph
(NE 15 kph)
- 10SM
12:55
Fair
59°F / 15°C 27°F / -3°C 29% 30.12 in
(1020 mb)
NNE 6.9 mph
(NNE 11 kph)
- 10SM
12:35
Fair
59°F / 15°C 27°F / -3°C 29% 30.12 in
(1020 mb)
NE 10.4 mph
(NE 17 kph)
- 10SM
12:15
Fair
57°F / 14°C 27°F / -3°C 31% 30.12 in
(1020 mb)
NE 10.4 mph
(NE 17 kph)
- 10SM
11:55
Fair
57°F / 14°C 27°F / -3°C 31% 30.15 in
(1021 mb)
NE 8.1 mph
(NE 13 kph)
- 10SM
11:35
Fair
57°F / 14°C 27°F / -3°C 31% 30.15 in
(1021 mb)
N 9.2 mph
(N 15 kph)
- 10SM
11:15
Clear
57°F / 14°C 27°F / -3°C 31% 30.15 in
(1021 mb)
NE 9.2 mph
(NE 15 kph)
- 10SM
10:55
Clear
55°F / 13°C 28°F / -2°C 36% 30.15 in
(1021 mb)
NE 5.8 mph
(NE 9 kph)
- 10SM
10:35
Fair
55°F / 13°C 28°F / -2°C 36% 30.15 in
(1021 mb)
NNE 5.8 mph
(NNE 9 kph)
- 10SM
10:15
Fair
54°F / 12°C 30°F / -1°C 41% 30.15 in
(1021 mb)
N 5.8 mph
(N 9 kph)
- 10SM
09:55
Fair
52°F / 11°C 32°F / 0°C 47% 30.15 in
(1021 mb)
Calm - 10SM
09:35
Fair
52°F / 11°C 34°F / 1°C 50% 30.15 in
(1021 mb)
Calm - 10SM
09:15
Fair
48°F / 9°C 34°F / 1°C 58% 30.12 in
(1020 mb)
Calm - 10SM
08:55
Clear
46°F / 8°C 36°F / 2°C 66% 30.12 in
(1020 mb)
Calm - 10SM
08:40
Fair
45°F / 7°C 34°F / 1°C 66% 30.12 in
(1020 mb)
Calm - 10SM
08:15
Fair
41°F / 5°C 34°F / 1°C 76% 30.12 in
(1020 mb)
Calm - 10SM
07:55
Fair
39°F / 4°C 34°F / 1°C 81% 30.09 in
(1019 mb)
Calm - 10SM
07:35
Fair
37°F / 3°C 32°F / 0°C 81% 30.09 in
(1019 mb)
Calm - 10SM
07:15
Fair
36°F / 2°C 30°F / -1°C 81% 30.09 in
(1019 mb)
Calm - 10SM
06:55
Fair
36°F / 2°C 30°F / -1°C 81% 30.09 in
(1019 mb)
S 4.6 mph
(S 7 kph)
- 10SM
06:35
Fair
36°F / 2°C 30°F / -1°C 81% 30.09 in
(1019 mb)
S 4.6 mph
(S 7 kph)
- 10SM
06:15
Fair
36°F / 2°C 30°F / -1°C 81% 30.06 in
(1018 mb)
Calm - 10SM
05:55
Fair
39°F / 4°C 32°F / 0°C 75% 30.06 in
(1018 mb)
Calm - 10SM
05:35
Fair
37°F / 3°C 32°F / 0°C 81% 30.06 in
(1018 mb)
Calm - 10SM
05:15
Fair
37°F / 3°C 32°F / 0°C 81% 30.06 in
(1018 mb)
S 3.5 mph
(S 6 kph)
- 10SM
04:55
Fair
37°F / 3°C 32°F / 0°C 81% 30.06 in
(1018 mb)
SW 3.5 mph
(SW 6 kph)
- 10SM
04:35
Fair
37°F / 3°C 34°F / 1°C 87% 30.06 in
(1018 mb)
SW 4.6 mph
(SW 7 kph)
- 10SM
04:15
Fair
36°F / 2°C 32°F / 0°C 87% 30.04 in
(1017 mb)
S 4.6 mph
(S 7 kph)
- 10SM
03:55
Fair
36°F / 2°C 34°F / 1°C 93% 30.04 in
(1017 mb)
S 5.8 mph
(S 9 kph)
- 10SM
03:35
Fair
36°F / 2°C 32°F / 0°C 87% 30.04 in
(1017 mb)
S 4.6 mph
(S 7 kph)
- 10SM
03:15
Fair
37°F / 3°C 34°F / 1°C 87% 30.04 in
(1017 mb)
Calm - 10SM
02:55
Fair
37°F / 3°C 32°F / 0°C 81% 30.04 in
(1017 mb)
S 4.6 mph
(S 7 kph)
- 10SM
02:35
Fair
39°F / 4°C 32°F / 0°C 75% 30.04 in
(1017 mb)
S 5.8 mph
(S 9 kph)
- 10SM
02:15
Fair
39°F / 4°C 32°F / 0°C 75% 30.04 in
(1017 mb)
S 6.9 mph
(S 11 kph)
- 10SM
01:55
Fair
41°F / 5°C 32°F / 0°C 70% 30.04 in
(1017 mb)
S 4.6 mph
(S 7 kph)
- 10SM
01:35
Fair
39°F / 4°C 32°F / 0°C 75% 30.04 in
(1017 mb)
SSE 4.6 mph
(SSE 7 kph)
- 10SM
01:15
Fair
39°F / 4°C 32°F / 0°C 75% 30.04 in
(1017 mb)
Calm - 10SM
00:55
Clear
39°F / 4°C 32°F / 0°C 75% 30.04 in
(1017 mb)
SW 4.6 mph
(SW 7 kph)
- 10SM
00:35
Clear
39°F / 4°C 34°F / 1°C 81% 30.04 in
(1017 mb)
SW 4.6 mph
(SW 7 kph)
- 10SM
00:15
Clear
41°F / 5°C 34°F / 1°C 76% 30.04 in
(1017 mb)
SW 3.5 mph
(SW 6 kph)
- 10SM
Time Weather Temperature Dewpoint Humidity Pressure Winds Precip Visibility


Weather for websites

WeatherForYou.com, LLC is not responsible for any damages or problems caused by this service. Current weather conditions are obtained from the closest station including government and personal stations which may have varying degrees of accuracy. Weather forecasts are derived from the NOAA NDFD. Like all things, this site belongs to Jesus Christ... He just trusts me to maintain it. If you have any questions or comments email webmaster@weatherforyou.com

Copyright © 2015, WeatherForYou.com LLC. All rights reserved.